Regional Weather Roundup
Issued by NWS

Home | Current Version | Previous Version | Graphics & Text | Print | Product List | Glossary On
Versions: 1 2 3 4 5 6 7 8 9 10 11 12 13 14 15 16 17 18 19 20 21 22 23 24 25 26 27 28 29 30 31 32 33 34 35 36 37 38 39 40 41 42 43 44 45 46 47 48 49 50
000
ASUS44 KMEG 060700
RWRTN
TENNESSEE HOURLY STATE WEATHER ROUNDUP
NATIONAL WEATHER SERVICE MEMPHIS TN
200 AM CDT WED MAY 06 2015

TNZ002-004-019-021-049-052-054-088>092-060800-
WEST TENNESSEE

CITY           SKY/WX    TMP DP  RH WIND       PRES   REMARKS
MEMPHIS INTL   CLEAR     70  54  56 SE8       30.13F
NWS MEMPHIS      N/A     62 N/A N/A MISG        N/A
JACKSON        CLEAR     57  54  89 CALM      30.16F
DYERSBURG      CLEAR     63  45  51 CALM      30.16F
PARIS          CLEAR     59  52  77 SE3       30.18F
LEXINGTON      CLEAR     55  55 100 CALM      30.17F
$$

TNZ008-025-027-028-033-062-065-066-060800-
NORTH MIDDLE TENNESSEE

CITY           SKY/WX    TMP DP  RH WIND       PRES   REMARKS
NASHVILLE      CLOUDY    64  58  80 S3        30.20F
CLARKSVILLE    CLEAR     57  56  96 SE3       30.19F
CROSSVILLE     CLOUDY    67  53  61 CALM      30.26F
$$

TNZ061-075-076-078-094-096-097-060800-
SOUTH MIDDLE TENNESSEE

CITY           SKY/WX    TMP DP  RH WIND       PRES   REMARKS
FAYETTEVILLE     N/A     61  54  77 CALM      30.21F
TULLAHOMA      PTCLDY    57  54  88 CALM      30.23F
WINCHESTER     CLEAR     63  55  77 CALM      30.23S
SHELBYVILLE    PTCLDY    63  59  88 E3        30.22F
$$

TNZ017-018-042-046-047-060800-
NORTHEAST TENNESSEE

CITY           SKY/WX    TMP DP  RH WIND       PRES   REMARKS
TRI CITIES     CLOUDY    61  56  83 CALM      30.26F
ELIZABETHTON   CLOUDY    59  54  82 E3        30.27F
$$

TNZ012-013-036-069-073-074-060800-
CENTRAL EAST TENNESSEE

CITY           SKY/WX    TMP DP  RH WIND       PRES   REMARKS
KNOXVILLE      PTCLDY    63  57  81 NE3       30.22F
OAK RIDGE      PTCLDY    65  59  81 CALM      30.24F
GATLINBURG     PTSUNNY   59  57  94 CALM      30.23F
$$

TNZ083-085-099-060800-
SOUTHEAST TENNESSEE

CITY           SKY/WX    TMP DP  RH WIND       PRES   REMARKS
CHATTANOOGA    CLEAR     63  58  83 CALM      30.22F
$$

SKY/WX REPORTED AS FAIR MEANS FEW OR NO CLOUDS BELOW
12 THOUSAND FEET.



USA.gov is the U.S. government's official web portal to all federal, state and local government web resources and services.